Regional Weather Roundup
Issued by NWS

Home | Current Version | Previous Version | Graphics & Text | Print | Product List | Glossary On
Versions: 1 2 3 4 5 6 7 8 9 10 11 12 13 14 15 16 17 18 19 20 21 22 23 24 25 26 27 28 29 30 31 32 33 34 35 36 37 38 39 40 41 42 43 44 45 46 47 48 49 50
000
ASUS43 KOAX 300302
RWRNE

WEATHER ROUNDUP FOR NEBRASKA
NATIONAL WEATHER SERVICE OMAHA NE
1000 PM CDT TUE JUL 29 2014

NOTES: SATELLITE DATA IS BEING USED TO AUGMENT CLOUD COVER ABOVE
       12000 FEET.
       "FAIR" INDICATES FEW OR NO CLOUDS BELOW 12,000 FEET WITH NO
       SIGNIFICANT WEATHER AND/OR OBSTRUCTIONS TO VISIBILITY.

  * THESE STATIONS DO NOT REPORT WEATHER SUCH AS RAIN...SNOW OR FOG.

NEZ001>004-019>022-054>056-300400-
NEBRASKA PANHANDLE

CITY           SKY/WX    TMP DP  RH WIND       PRES   REMARKS
SCOTTSBLUFF    LGT RAIN  66  63  90 W3        30.24R
ALLIANCE         N/A     69  53  56 NE10      30.22R
CHADRON        CLOUDY    66  57  72 E3        30.21R
KIMBALL        RAIN      61  60  97 N3        30.26R
SIDNEY         CLOUDY    66  54  65 NE12      30.23R
$$

NEZ057>060-069>072-079>082-300400-
SOUTHWEST NEBRASKA

CITY           SKY/WX    TMP DP  RH WIND       PRES   REMARKS
NORTH PLATTE   CLOUDY    67  63  87 E5        30.16R
IMPERIAL       CLOUDY    74  58  57 E16       30.14R
LEXINGTON      CLOUDY    70  61  71 E7        30.16R
MCCOOK         CLOUDY    73  60  63 E15       30.13R
OGALLALA       CLOUDY    69  59  70 E9        30.17R
$$

NEZ005>010-023>029-035>040-094-300400-
NORTH CENTRAL NEBRASKA

CITY           SKY/WX    TMP DP  RH WIND       PRES   REMARKS
VALENTINE      PTCLDY    62  52  69 W3        30.18R
AINSWORTH      PTCLDY    66  53  62 CALM      30.18R
BROKEN BOW     CLOUDY    69  61  75 NE6       30.17R
O`NEILL        CLEAR     67  55  65 E6        30.16S
ORD            CLOUDY    67  60  78 CALM      30.15R
THEDFORD       CLOUDY    69  57  65 E5        30.20R
$$

NEZ041-046>049-061>064-073>077-083>087-300400-
SOUTH CENTRAL NEBRASKA

CITY           SKY/WX    TMP DP  RH WIND       PRES   REMARKS
GRAND ISLAND   CLOUDY    69  59  70 SE3       30.16R
AURORA         CLOUDY    68  62  80 CALM      30.15R
HASTINGS       CLOUDY    70  56  61 E8        30.15R
HEBRON         MOCLDY    69  55  60 NE6       30.13R
HOLDREGE       CLOUDY    68  60  75 E8        30.15R
KEARNEY *      CLOUDY    68  61  77 NE6       30.16R
YORK           CLOUDY    68  59  73 SE5       30.15R
$$

NEZ011>018-030>034-042>045-300400-
NORTHEAST NEBRASKA

CITY           SKY/WX    TMP DP  RH WIND       PRES   REMARKS
NORFOLK        PTCLDY    61  55  81 CALM      30.15R
ALBION         MOCLDY    64  57  80 E6        30.16R
BLAIR          MOCLDY    67  55  64 N3        30.13R
COLUMBUS *     CLOUDY    64  57  77 CALM      30.15R
FREMONT        MOCLDY    68  58  69 CALM      30.14R
TEKAMAH        PTCLDY    63  55  75 CALM      30.13R
WAYNE          PTCLDY    60  57  89 CALM      30.15R
$$

NEZ050>053-065>068-078-088>093-300400-
SOUTHEAST NEBRASKA

CITY           SKY/WX    TMP DP  RH WIND       PRES   REMARKS
LINCOLN        MOCLDY    68  55  63 N5        30.14R
OMAHA EPPLEY   MOCLDY    67  57  70 N3        30.13R
BEATRICE       PTCLDY    66  58  74 NE6       30.13R
FALLS CITY     MOCLDY    69  59  70 N3        30.11R
NEBRASKA CITY  MOCLDY    67  55  66 CALM      30.13R
PLATTSMOUTH    MOCLDY    69  54  60 CALM      30.13S
$$

NEZ044-045-051>053-067-300400-
OMAHA AREA

CITY           SKY/WX    TMP DP  RH WIND       PRES   REMARKS
OMAHA EPPLEY   MOCLDY    67  57  70 N3        30.13R
BLAIR          MOCLDY    67  55  64 N3        30.13R
FREMONT        MOCLDY    68  58  69 CALM      30.14R
MILLARD        MOCLDY    67  58  72 CALM      30.12S
OFFUTT AFB     MOCLDY    62  61  94 CALM      30.12R
PLATTSMOUTH    MOCLDY    69  54  60 CALM      30.13S
WAHOO          FAIR      66  60  79 NE3       30.13S
$$


USA.gov is the U.S. government's official web portal to all federal, state and local government web resources and services.